VOE3KM EDDB-LFLL

Flight info

Callsign VOE3KM
Flight time 1h 26m
Altitude 35000
Route KISUC1Q/06R KISUC Z117 ORTAG DCT BAMKI/N0449F360 DCT IBAGA DCT DKB DCT TEDGO/N0445F350 N869 NATOR DCT LUTIX DCT BENOT N869 MILPA
Aircraft A320/M-SDE3FGHIRWY/LB1

Departure

Time 2026-05-07 11:03
Airport Berlin Brandenburg Airport (EDDB)

Arrival

Time 2026-05-07 12:30
Airport Lyon Saint-Exupéry Airport (LFLL)
Time Latitude Longitude Altitude Speed Heading
2026-05-07 10:37 52.36000 13.50814 155 ft 0 kts 339°
2026-05-07 10:55 52.35994 13.50819 155 ft 4 kts 339°
2026-05-07 10:55 52.35968 13.50835 154 ft 4 kts 339°
2026-05-07 10:56 52.35948 13.50847 155 ft 4 kts 335°
2026-05-07 10:56 52.35932 13.50871 155 ft 4 kts 272°
2026-05-07 10:56 52.35937 13.50910 155 ft 4 kts 249°
2026-05-07 10:56 52.35941 13.50925 155 ft 0 kts 249°
2026-05-07 10:59 52.35941 13.50924 155 ft 1 kts 249°
2026-05-07 10:59 52.35930 13.50877 155 ft 9 kts 249°
2026-05-07 10:59 52.35902 13.50760 154 ft 12 kts 249°
2026-05-07 10:59 52.35835 13.50634 154 ft 16 kts 175°
2026-05-07 11:00 52.35757 13.50559 154 ft 14 kts 248°
2026-05-07 11:00 52.35705 13.50340 154 ft 27 kts 248°
2026-05-07 11:00 52.35637 13.50046 154 ft 28 kts 249°
2026-05-07 11:00 52.35563 13.49739 154 ft 30 kts 249°
2026-05-07 11:01 52.35487 13.49415 154 ft 31 kts 248°
2026-05-07 11:01 52.35412 13.49098 154 ft 30 kts 250°
2026-05-07 11:01 52.35336 13.48774 154 ft 31 kts 249°
2026-05-07 11:01 52.35244 13.48482 154 ft 23 kts 210°
2026-05-07 11:02 52.35155 13.48518 154 ft 20 kts 158°
2026-05-07 11:02 52.35089 13.48701 154 ft 21 kts 97°
2026-05-07 11:02 52.35071 13.48943 154 ft 22 kts 96°
2026-05-07 11:02 52.35105 13.49213 154 ft 33 kts 68°
2026-05-07 11:03 52.35281 13.49953 155 ft 104 kts 69°
2026-05-07 11:03 52.35611 13.51345 160 ft 156 kts 68°
2026-05-07 11:03 52.35946 13.53048 758 ft 159 kts 85°
2026-05-07 11:03 52.35547 13.54715 1506 ft 166 kts 129°
2026-05-07 11:04 52.34650 13.55965 2149 ft 180 kts 146°
2026-05-07 11:04 52.33334 13.56264 2561 ft 207 kts 189°
2026-05-07 11:04 52.31974 13.55247 3017 ft 229 kts 215°
2026-05-07 11:04 52.30637 13.53580 3515 ft 254 kts 217°
2026-05-07 11:05 52.29209 13.51710 4202 ft 269 kts 218°
2026-05-07 11:05 52.27771 13.49708 5161 ft 274 kts 226°
2026-05-07 11:05 52.26720 13.47086 6107 ft 280 kts 248°
2026-05-07 11:05 52.26301 13.43991 7012 ft 282 kts 270°
2026-05-07 11:06 52.26306 13.40777 7955 ft 284 kts 271°
2026-05-07 11:06 52.26314 13.37543 8929 ft 286 kts 271°
2026-05-07 11:06 52.26316 13.34280 9881 ft 289 kts 271°
2026-05-07 11:06 52.26313 13.30985 10730 ft 292 kts 271°
2026-05-07 11:07 52.26307 13.27661 11579 ft 294 kts 271°
2026-05-07 11:07 52.26235 13.24305 12467 ft 298 kts 264°
2026-05-07 11:07 52.25727 13.20985 13202 ft 309 kts 250°
2026-05-07 11:07 52.24695 13.17762 13494 ft 333 kts 239°
2026-05-07 11:08 52.23439 13.14422 13730 ft 357 kts 239°
2026-05-07 11:08 52.22100 13.10862 13888 ft 380 kts 239°
2026-05-07 11:08 52.20687 13.07093 14089 ft 396 kts 239°
2026-05-07 11:08 52.19238 13.03222 14611 ft 402 kts 238°
2026-05-07 11:09 52.17779 12.99316 15234 ft 405 kts 238°
2026-05-07 11:09 52.16500 12.95210 15834 ft 409 kts 248°
2026-05-07 11:09 52.15718 12.90737 16438 ft 413 kts 257°
2026-05-07 11:09 52.15087 12.86170 17061 ft 414 kts 257°
2026-05-07 11:10 52.14447 12.81595 17708 ft 415 kts 256°
2026-05-07 11:10 52.13796 12.76996 18263 ft 418 kts 255°
2026-05-07 11:10 52.13136 12.72375 18733 ft 422 kts 256°
2026-05-07 11:10 52.12467 12.67706 19190 ft 424 kts 256°
2026-05-07 11:11 52.11794 12.63012 19656 ft 427 kts 256°
2026-05-07 11:11 52.11116 12.58301 20093 ft 429 kts 255°
2026-05-07 11:11 52.10432 12.53560 20522 ft 432 kts 256°
2026-05-07 11:11 52.09741 12.48778 20941 ft 435 kts 256°
2026-05-07 11:12 52.09044 12.43978 21319 ft 438 kts 256°
2026-05-07 11:12 52.08341 12.39147 21709 ft 440 kts 256°
2026-05-07 11:12 52.07453 12.34377 22093 ft 442 kts 248°
2026-05-07 11:12 52.06124 12.29886 22523 ft 442 kts 239°
2026-05-07 11:13 52.04393 12.25742 22965 ft 443 kts 232°
2026-05-07 11:13 52.02546 12.21716 23337 ft 446 kts 233°
2026-05-07 11:13 52.00687 12.17667 23653 ft 448 kts 233°
2026-05-07 11:13 51.98826 12.13609 23949 ft 450 kts 232°
2026-05-07 11:14 51.96950 12.09530 24240 ft 452 kts 232°
2026-05-07 11:14 51.95065 12.05443 24491 ft 454 kts 232°
2026-05-07 11:14 51.93171 12.01342 24762 ft 455 kts 232°
2026-05-07 11:14 51.91269 11.97233 25019 ft 457 kts 232°
2026-05-07 11:15 51.89351 11.93099 25205 ft 461 kts 232°
2026-05-07 11:15 51.87420 11.88948 25399 ft 463 kts 232°
2026-05-07 11:15 51.85474 11.84772 25620 ft 465 kts 232°
2026-05-07 11:15 51.83523 11.80592 25842 ft 467 kts 232°
2026-05-07 11:16 51.81556 11.76409 26050 ft 468 kts 231°
2026-05-07 11:16 51.79576 11.72228 26259 ft 469 kts 231°
2026-05-07 11:16 51.77589 11.68046 26485 ft 469 kts 231°
2026-05-07 11:16 51.75604 11.63883 26758 ft 468 kts 231°
2026-05-07 11:17 51.73617 11.59727 27019 ft 467 kts 231°
2026-05-07 11:17 51.71630 11.55580 27258 ft 467 kts 231°
2026-05-07 11:17 51.69646 11.51446 27475 ft 469 kts 231°
2026-05-07 11:17 51.67650 11.47287 27670 ft 470 kts 231°
2026-05-07 11:18 51.65676 11.43173 27923 ft 470 kts 231°
2026-05-07 11:18 51.63681 11.39007 28211 ft 470 kts 231°
2026-05-07 11:18 51.61685 11.34844 28523 ft 469 kts 231°
2026-05-07 11:18 51.59660 11.30633 28833 ft 469 kts 231°
2026-05-07 11:19 51.57661 11.26495 29127 ft 468 kts 230°
2026-05-07 11:19 51.55661 11.22366 29390 ft 468 kts 230°
2026-05-07 11:19 51.53649 11.18263 29653 ft 467 kts 228°
2026-05-07 11:19 51.51371 11.14577 29935 ft 464 kts 218°
2026-05-07 11:20 51.48787 11.11605 30154 ft 462 kts 208°
2026-05-07 11:20 51.45909 11.09352 30359 ft 460 kts 198°
2026-05-07 11:20 51.42851 11.07907 30563 ft 457 kts 189°
2026-05-07 11:20 51.39709 11.07275 30784 ft 455 kts 181°
2026-05-07 11:21 51.36552 11.07039 31006 ft 454 kts 181°
2026-05-07 11:21 51.33398 11.06792 31249 ft 454 kts 181°
2026-05-07 11:21 51.30247 11.06543 31524 ft 453 kts 181°
2026-05-07 11:21 51.27100 11.06293 31829 ft 453 kts 181°
2026-05-07 11:22 51.23950 11.06042 32061 ft 453 kts 182°
2026-05-07 11:22 51.20802 11.05798 32282 ft 453 kts 182°
2026-05-07 11:22 51.17664 11.05556 32532 ft 452 kts 182°
2026-05-07 11:22 51.14524 11.05314 32818 ft 450 kts 182°
2026-05-07 11:23 51.11402 11.05073 33064 ft 449 kts 182°
2026-05-07 11:23 51.08280 11.04832 33288 ft 449 kts 183°
2026-05-07 11:23 51.05154 11.04594 33510 ft 450 kts 183°
2026-05-07 11:23 51.02030 11.04359 33732 ft 450 kts 183°
2026-05-07 11:24 50.98899 11.04122 33948 ft 451 kts 184°
2026-05-07 11:24 50.95764 11.03879 34140 ft 451 kts 184°
2026-05-07 11:24 50.92630 11.03633 34330 ft 451 kts 184°
2026-05-07 11:24 50.89498 11.03385 34532 ft 451 kts 184°
2026-05-07 11:25 50.86364 11.03141 34727 ft 451 kts 184°
2026-05-07 11:25 50.83233 11.02901 34936 ft 451 kts 184°
2026-05-07 11:25 50.76959 11.02423 34989 ft 452 kts 184°
2026-05-07 11:26 50.70724 11.01441 34989 ft 450 kts 194°
2026-05-07 11:26 50.64722 10.98612 34976 ft 450 kts 198°
2026-05-07 11:27 50.58733 10.95718 34980 ft 450 kts 198°
2026-05-07 11:27 50.52740 10.92856 34979 ft 450 kts 198°
2026-05-07 11:28 50.46745 10.89998 34979 ft 450 kts 198°
2026-05-07 11:28 50.40747 10.87145 34979 ft 450 kts 198°
2026-05-07 11:29 50.34791 10.84309 34973 ft 450 kts 198°
2026-05-07 11:29 50.28797 10.81458 34976 ft 450 kts 198°
2026-05-07 11:30 50.22801 10.78612 34975 ft 450 kts 198°
2026-05-07 11:30 50.16810 10.75781 34987 ft 450 kts 198°
2026-05-07 11:31 50.10812 10.72964 34991 ft 450 kts 198°
2026-05-07 11:31 50.04819 10.70156 34996 ft 450 kts 198°
2026-05-07 11:32 49.95830 10.65941 34997 ft 450 kts 198°
2026-05-07 11:33 49.89839 10.63148 35002 ft 450 kts 198°
2026-05-07 11:33 49.83846 10.60360 35008 ft 450 kts 198°
2026-05-07 11:34 49.77852 10.57582 35011 ft 450 kts 198°
2026-05-07 11:34 49.71870 10.54755 35018 ft 449 kts 199°
2026-05-07 11:35 49.65971 10.51578 35023 ft 449 kts 201°
2026-05-07 11:35 49.60097 10.48291 35025 ft 449 kts 201°
2026-05-07 11:36 49.54204 10.45078 35023 ft 449 kts 200°
2026-05-07 11:36 49.48312 10.41931 35023 ft 449 kts 200°
2026-05-07 11:37 49.42404 10.38783 35022 ft 449 kts 200°
2026-05-07 11:37 49.36501 10.35626 35025 ft 449 kts 200°
2026-05-07 11:38 49.30635 10.32502 35027 ft 449 kts 200°
2026-05-07 11:38 49.24729 10.29368 35030 ft 449 kts 200°
2026-05-07 11:39 49.18826 10.26224 35039 ft 449 kts 203°
2026-05-07 11:39 49.13496 10.21438 35041 ft 445 kts 221°
2026-05-07 11:40 49.09358 10.14465 35041 ft 444 kts 232°
2026-05-07 11:40 49.05480 10.07127 35030 ft 444 kts 232°
2026-05-07 11:41 49.01586 9.99804 35037 ft 445 kts 232°
2026-05-07 11:41 48.97692 9.92482 35039 ft 445 kts 232°
2026-05-07 11:42 48.93801 9.85172 35038 ft 445 kts 231°
2026-05-07 11:42 48.89902 9.77881 35036 ft 445 kts 231°
2026-05-07 11:43 48.85992 9.70589 35030 ft 445 kts 231°
2026-05-07 11:43 48.82085 9.63307 35033 ft 445 kts 232°
2026-05-07 11:44 48.78175 9.56039 35021 ft 445 kts 231°
2026-05-07 11:44 48.74256 9.48781 35020 ft 445 kts 231°
2026-05-07 11:45 48.70333 9.41535 35017 ft 445 kts 231°
2026-05-07 11:45 48.66400 9.34293 35020 ft 445 kts 231°
2026-05-07 11:46 48.62467 9.27075 35022 ft 445 kts 231°
2026-05-07 11:46 48.58691 9.19668 35023 ft 444 kts 235°
2026-05-07 11:47 48.55760 9.13304 35024 ft 444 kts 236°
2026-05-07 11:47 48.52261 9.05618 35022 ft 444 kts 236°
2026-05-07 11:48 48.48104 8.96780 35022 ft 444 kts 235°
2026-05-07 11:48 48.45078 8.90444 35025 ft 444 kts 235°
2026-05-07 11:49 48.41466 8.82900 35024 ft 444 kts 235°
2026-05-07 11:49 48.37875 8.75398 35026 ft 445 kts 235°
2026-05-07 11:50 48.34273 8.67874 35030 ft 445 kts 235°
2026-05-07 11:50 48.30655 8.60343 35034 ft 444 kts 235°
2026-05-07 11:51 48.27031 8.52822 35036 ft 444 kts 235°
2026-05-07 11:51 48.23431 8.45367 35044 ft 444 kts 235°
2026-05-07 11:52 48.19795 8.37878 35049 ft 444 kts 235°
2026-05-07 11:52 48.15655 8.31024 35048 ft 446 kts 220°
2026-05-07 11:53 48.10492 8.25842 35041 ft 447 kts 214°
2026-05-07 11:53 48.05258 8.20803 35042 ft 447 kts 214°
2026-05-07 11:54 48.00024 8.15765 35049 ft 447 kts 214°
2026-05-07 11:54 47.94789 8.10745 35050 ft 447 kts 214°
2026-05-07 11:55 47.89555 8.05743 35038 ft 447 kts 214°
2026-05-07 11:55 47.84319 8.00737 35043 ft 447 kts 214°
2026-05-07 11:56 47.79085 7.95748 35048 ft 447 kts 214°
2026-05-07 11:56 47.73847 7.90776 35045 ft 447 kts 214°
2026-05-07 11:57 47.68619 7.85818 35049 ft 446 kts 214°
2026-05-07 11:57 47.63380 7.80863 35053 ft 446 kts 214°
2026-05-07 11:58 47.58148 7.75926 35054 ft 446 kts 214°
2026-05-07 11:58 47.52914 7.70996 35046 ft 446 kts 215°
2026-05-07 11:59 47.47680 7.66084 35051 ft 445 kts 214°
2026-05-07 11:59 47.42444 7.61188 35052 ft 445 kts 214°
2026-05-07 12:00 47.37211 7.56303 35050 ft 445 kts 214°
2026-05-07 12:00 47.31981 7.51430 35037 ft 445 kts 215°
2026-05-07 12:01 47.26782 7.46590 35030 ft 445 kts 215°
2026-05-07 12:01 47.21519 7.41703 35028 ft 444 kts 215°
2026-05-07 12:02 47.16520 7.36531 35027 ft 440 kts 225°
2026-05-07 12:02 47.12557 7.29745 35023 ft 437 kts 233°
2026-05-07 12:03 47.08770 7.22760 35027 ft 437 kts 233°
2026-05-07 12:03 47.04968 7.15794 35027 ft 437 kts 233°
2026-05-07 12:04 47.01165 7.08846 35028 ft 437 kts 233°
2026-05-07 12:04 46.97362 7.01898 35026 ft 437 kts 233°
2026-05-07 12:05 46.93556 6.94980 34567 ft 435 kts 233°
2026-05-07 12:05 46.91664 6.91535 34125 ft 434 kts 233°
2026-05-07 12:05 46.89776 6.88090 33616 ft 434 kts 233°
2026-05-07 12:05 46.87882 6.84642 33096 ft 435 kts 233°
2026-05-07 12:06 46.85982 6.81191 32590 ft 437 kts 233°
2026-05-07 12:06 46.84073 6.77731 32086 ft 438 kts 233°
2026-05-07 12:06 46.82155 6.74263 31590 ft 440 kts 233°
2026-05-07 12:06 46.80228 6.70782 31114 ft 441 kts 233°
2026-05-07 12:07 46.78291 6.67297 30624 ft 443 kts 232°
2026-05-07 12:07 46.76347 6.63806 30150 ft 444 kts 233°
2026-05-07 12:07 46.74400 6.60312 29607 ft 444 kts 233°
2026-05-07 12:07 46.72448 6.56809 29057 ft 446 kts 232°
2026-05-07 12:08 46.70446 6.53345 28520 ft 448 kts 231°
2026-05-07 12:08 46.68390 6.49933 27998 ft 450 kts 230°
2026-05-07 12:08 46.66296 6.46540 27485 ft 451 kts 230°
2026-05-07 12:08 46.64184 6.43143 26980 ft 453 kts 230°
2026-05-07 12:09 46.62069 6.39731 26481 ft 454 kts 230°
2026-05-07 12:09 46.59965 6.36307 25995 ft 456 kts 230°
2026-05-07 12:09 46.57855 6.32851 25515 ft 457 kts 230°
2026-05-07 12:09 46.55745 6.29387 25047 ft 459 kts 230°
2026-05-07 12:10 46.53625 6.25907 24584 ft 461 kts 230°
2026-05-07 12:10 46.51500 6.22424 24140 ft 460 kts 229°
2026-05-07 12:10 46.49378 6.18954 23678 ft 458 kts 229°
2026-05-07 12:10 46.47261 6.15505 23162 ft 456 kts 229°
2026-05-07 12:11 46.45187 6.12135 22652 ft 453 kts 229°
2026-05-07 12:11 46.43094 6.08739 22140 ft 450 kts 229°
2026-05-07 12:11 46.41019 6.05375 21636 ft 447 kts 229°
2026-05-07 12:11 46.38954 6.02032 21136 ft 443 kts 229°
2026-05-07 12:12 46.36906 5.98717 20644 ft 440 kts 229°
2026-05-07 12:12 46.34873 5.95430 20168 ft 437 kts 229°
2026-05-07 12:12 46.32851 5.92165 19697 ft 434 kts 229°
2026-05-07 12:12 46.31010 5.88734 19218 ft 430 kts 237°
2026-05-07 12:13 46.29596 5.84948 18735 ft 426 kts 247°
2026-05-07 12:13 46.28600 5.80987 18255 ft 414 kts 251°
2026-05-07 12:13 46.27685 5.77093 17716 ft 404 kts 251°
2026-05-07 12:13 46.26784 5.73294 17179 ft 396 kts 251°
2026-05-07 12:14 46.25892 5.69568 16653 ft 389 kts 251°
2026-05-07 12:14 46.25009 5.65909 16135 ft 383 kts 251°
2026-05-07 12:14 46.24139 5.62306 15629 ft 377 kts 251°
2026-05-07 12:14 46.23284 5.58758 15147 ft 371 kts 251°
2026-05-07 12:15 46.22441 5.55260 14645 ft 366 kts 251°
2026-05-07 12:15 46.21608 5.51808 14164 ft 361 kts 251°
2026-05-07 12:15 46.20788 5.48408 13660 ft 356 kts 251°
2026-05-07 12:15 46.19968 5.45060 13127 ft 352 kts 248°
2026-05-07 12:16 46.18868 5.41942 12596 ft 347 kts 238°
2026-05-07 12:16 46.17410 5.39195 12078 ft 343 kts 227°
2026-05-07 12:16 46.15682 5.36923 11576 ft 339 kts 218°
2026-05-07 12:16 46.13706 5.35097 11061 ft 336 kts 208°
2026-05-07 12:17 46.11568 5.33795 10577 ft 332 kts 198°
2026-05-07 12:17 46.09331 5.33048 10091 ft 329 kts 188°
2026-05-07 12:17 46.07065 5.32864 9690 ft 322 kts 181°
2026-05-07 12:17 46.04869 5.32840 9422 ft 311 kts 181°
2026-05-07 12:18 46.02742 5.32810 9157 ft 301 kts 180°
2026-05-07 12:18 46.00681 5.32777 8895 ft 292 kts 180°
2026-05-07 12:18 45.98680 5.32744 8635 ft 284 kts 180°
2026-05-07 12:18 45.96735 5.32713 8377 ft 276 kts 180°
2026-05-07 12:19 45.94842 5.32684 8118 ft 268 kts 181°
2026-05-07 12:19 45.93001 5.32655 7865 ft 262 kts 180°
2026-05-07 12:19 45.91204 5.32626 7612 ft 255 kts 180°
2026-05-07 12:19 45.89455 5.32599 7365 ft 248 kts 180°
2026-05-07 12:20 45.87751 5.32574 7113 ft 242 kts 180°
2026-05-07 12:20 45.86087 5.32549 6867 ft 236 kts 180°
2026-05-07 12:20 45.84461 5.32525 6625 ft 231 kts 180°
2026-05-07 12:20 45.82875 5.32504 6406 ft 224 kts 181°
2026-05-07 12:21 45.81338 5.32483 6186 ft 219 kts 181°
2026-05-07 12:21 45.79819 5.32463 5992 ft 218 kts 181°
2026-05-07 12:21 45.78301 5.32441 5786 ft 219 kts 181°
2026-05-07 12:21 45.76779 5.32416 5581 ft 219 kts 181°
2026-05-07 12:22 45.75258 5.32392 5372 ft 219 kts 181°
2026-05-07 12:22 45.73734 5.32369 5174 ft 219 kts 181°
2026-05-07 12:22 45.72212 5.32347 4976 ft 219 kts 181°
2026-05-07 12:22 45.70684 5.32325 4770 ft 219 kts 181°
2026-05-07 12:23 45.69160 5.32302 4551 ft 219 kts 181°
2026-05-07 12:23 45.67629 5.32278 4345 ft 221 kts 181°
2026-05-07 12:23 45.66093 5.32248 4141 ft 221 kts 184°
2026-05-07 12:23 45.64579 5.31896 3939 ft 220 kts 199°
2026-05-07 12:24 45.63315 5.30752 3739 ft 215 kts 234°
2026-05-07 12:24 45.62675 5.28894 3523 ft 206 kts 255°
2026-05-07 12:24 45.62272 5.26945 3297 ft 203 kts 257°
2026-05-07 12:24 45.61912 5.25006 3082 ft 200 kts 258°
2026-05-07 12:25 45.61560 5.23112 2900 ft 196 kts 257°
2026-05-07 12:25 45.61226 5.21260 2745 ft 188 kts 258°
2026-05-07 12:25 45.60896 5.19500 2589 ft 179 kts 258°
2026-05-07 12:25 45.60578 5.17828 2524 ft 170 kts 258°
2026-05-07 12:26 45.60270 5.16187 2527 ft 171 kts 259°
2026-05-07 12:26 45.60057 5.14524 2528 ft 168 kts 273°
2026-05-07 12:26 45.60254 5.12899 2522 ft 165 kts 294°
2026-05-07 12:26 45.60834 5.11513 2525 ft 163 kts 314°
2026-05-07 12:27 45.61708 5.10522 2522 ft 161 kts 333°
2026-05-07 12:27 45.62773 5.10038 2433 ft 161 kts 353°
2026-05-07 12:27 45.63858 5.09904 2259 ft 150 kts 355°
2026-05-07 12:27 45.64863 5.09783 2072 ft 139 kts 354°
2026-05-07 12:28 45.65799 5.09670 1914 ft 135 kts 355°
2026-05-07 12:28 45.66715 5.09559 1733 ft 130 kts 354°
2026-05-07 12:28 45.67621 5.09449 1546 ft 132 kts 355°
2026-05-07 12:28 45.68530 5.09342 1383 ft 130 kts 354°
2026-05-07 12:29 45.69438 5.09226 1173 ft 132 kts 355°
2026-05-07 12:29 45.70363 5.09117 1004 ft 133 kts 355°
2026-05-07 12:29 45.71280 5.09008 831 ft 131 kts 354°
2026-05-07 12:29 45.72090 5.08910 809 ft 98 kts 355°
2026-05-07 12:30 45.72599 5.08847 792 ft 49 kts 355°
2026-05-07 12:30 45.72838 5.08817 792 ft 31 kts 355°
2026-05-07 12:30 45.72954 5.08634 792 ft 29 kts 258°
2026-05-07 12:30 45.72896 5.08366 790 ft 27 kts 215°
2026-05-07 12:31 45.72711 5.08366 791 ft 28 kts 176°
2026-05-07 12:31 45.72521 5.08391 796 ft 26 kts 175°
2026-05-07 12:31 45.72363 5.08412 798 ft 18 kts 175°
2026-05-07 12:31 45.72267 5.08371 799 ft 14 kts 239°
2026-05-07 12:32 45.72184 5.08317 798 ft 13 kts 187°
2026-05-07 12:32 45.72097 5.08285 798 ft 13 kts 198°
2026-05-07 12:32 45.72046 5.08222 796 ft 10 kts 270°
2026-05-07 12:32 45.72070 5.08150 797 ft 8 kts 300°
2026-05-07 12:33 45.72080 5.08125 797 ft 0 kts 299°